User: anonymous   Login
Location: Unspecified
(0.0000°N, 0.0000°E)
Time: 01:28:32
(UTC+00:00)
Language:

METEOR-M - Orbit

View from above orbital plane
View from above orbital plane
View from above satellite
View from above satellite

Ground track
Ground track

The orbit data is extracted from the following two-line orbital elements,

1 35865U 09049A   18109.65420566  .00000016  00000-0  25969-4 0  9994
2 35865  98.4088 122.4161 0002139   6.6874 353.4332 14.22145597445667
Epoch (UTC): 19 April 2018 15:42:03
Eccentricity: 0.0002139
inclination: 98.4088°
perigee height: 816 km
apogee height: 819 km
right ascension of ascending node: 122.4161°
argument of perigee: 6.6874°
revolutions per day: 14.22145597
mean anomaly at epoch: 353.4332°
orbit number at epoch: 44566

The dashed part of the orbit path shows where the satellite is in the earth's shadow,  

DLR